When you browse on this site, cookies collect data to enhance your experience and personalize the content and advertising you see.
Visit our Privacy Policy to learn more. By continuing to use the site, you agree to this use of cookies and data.
  • En España
  • Lista de países
  • Para 7 días
  • Temperatura del agua
  • El tiempo en el mapa
  • Informadores
  • user-avatar
    Iniciar sesión

    Tiempo cada hora Sumy

    Hoy, 28 Marzo, Sábado

    Tiempo Temperatura Precipitaciones Viento Presión Humedad
    00:00 +7°C° 0 mm 3 mps 756 mmHg 76%
    01:00 +5°C° 0 mm 3 mps 755 mmHg 80%
    02:00 +5°C° 0 mm 3 mps 755 mmHg 81%
    03:00 +5°C° 0 mm 3 mps 755 mmHg 82%
    04:00 +4°C° 0 mm 3 mps 754 mmHg 84%
    05:00 +4°C° 0 mm 3 mps 754 mmHg 85%
    06:00 +5°C° 0 mm 4 mps 754 mmHg 79%
    07:00 +6°C° 0 mm 4 mps 754 mmHg 73%
    08:00 +7°C° 0 mm 4 mps 754 mmHg 69%
    09:00 +8°C° 0 mm 5 mps 753 mmHg 61%
    10:00 +10°C° 0 mm 5 mps 753 mmHg 53%
    11:00 +12°C° 0 mm 5 mps 752 mmHg 45%
    12:00 +13°C° 0 mm 5 mps 752 mmHg 42%
    13:00 +14°C° 0 mm 5 mps 751 mmHg 40%
    14:00 +14°C° 0 mm 6 mps 750 mmHg 38%
    15:00 +14°C° 0 mm 5 mps 750 mmHg 42%
    16:00 +13°C° 0 mm 5 mps 750 mmHg 46%
    17:00 +13°C° 0 mm 4 mps 749 mmHg 50%
    18:00 +12°C° 0 mm 4 mps 749 mmHg 54%
    19:00 +11°C° 0 mm 4 mps 749 mmHg 58%
    20:00 +10°C° 0 mm 4 mps 749 mmHg 62%
    21:00 +10°C° 0 mm 4 mps 748 mmHg 65%
    22:00 +8°C° 0 mm 4 mps 748 mmHg 68%
    23:00 +8°C° 0 mm 4 mps 747 mmHg 71%

    Mañana, 29 Marzo, Domingo

    Tiempo Temperatura Precipitaciones Viento Presión Humedad
    00:00 +7°C° 0 mm 4 mps 747 mmHg 73%
    01:00 +8°C° 0 mm 3 mps 747 mmHg 75%
    02:00 +7°C° 0 mm 3 mps 747 mmHg 76%
    03:00 +7°C° 0 mm 3 mps 746 mmHg 76%
    04:00 +7°C° 0 mm 3 mps 746 mmHg 76%
    05:00 +5°C° 0 mm 3 mps 745 mmHg 75%
    06:00 +7°C° 0 mm 3 mps 745 mmHg 71%
    07:00 +8°C° 0 mm 3 mps 745 mmHg 67%
    08:00 +7°C° 0 mm 4 mps 745 mmHg 62%
    09:00 +8°C° 0 mm 4 mps 744 mmHg 57%
    10:00 +10°C° 0 mm 4 mps 744 mmHg 51%
    11:00 +11°C° 0 mm 4 mps 744 mmHg 45%
    12:00 +12°C° 0 mm 4 mps 743 mmHg 43%
    13:00 +12°C° 0 mm 3 mps 743 mmHg 42%
    14:00 +12°C° 0 mm 3 mps 743 mmHg 40%
    15:00 +12°C° 0 mm 3 mps 742 mmHg 42%
    16:00 +12°C° 0 mm 3 mps 742 mmHg 44%
    17:00 +13°C° 0 mm 2 mps 742 mmHg 46%
    18:00 +12°C° 0 mm 2 mps 742 mmHg 49%
    19:00 +11°C° 0 mm 1 mps 742 mmHg 52%
    20:00 +10°C° 0 mm 1 mps 742 mmHg 55%
    21:00 +10°C° 0 mm 1 mps 741 mmHg 56%
    22:00 +8°C° 0 mm 0 mps 741 mmHg 57%
    23:00 +8°C° 0 mm 0 mps 741 mmHg 58%

    Pasado mañana, 30 Marzo, Lunes

    Tiempo Temperatura Precipitaciones Viento Presión Humedad
    00:00 +7°C° 0 mm 0 mps 740 mmHg 59%
    01:00 +7°C° 0 mm 0 mps 740 mmHg 60%
    02:00 +8°C° 0 mm 1 mps 740 mmHg 61%
    03:00 +7°C° 0 mm 1 mps 740 mmHg 63%
    04:00 +7°C° 0 mm 1 mps 740 mmHg 64%
    05:00 +7°C° 0 mm 1 mps 740 mmHg 65%
    06:00 +8°C° 0 mm 1 mps 740 mmHg 63%
    07:00 +9°C° 0 mm 1 mps 740 mmHg 60%
    08:00 +10°C° 0 mm 1 mps 740 mmHg 57%
    09:00 +10°C° 0 mm 2 mps 741 mmHg 53%
    10:00 +12°C° 0 mm 2 mps 741 mmHg 48%
    11:00 +14°C° 0 mm 2 mps 741 mmHg 44%
    12:00 +13°C° 0 mm 3 mps 741 mmHg 47%
    13:00 +13°C° 0 mm 4 mps 742 mmHg 51%
    14:00 +13°C° 0 mm 5 mps 742 mmHg 54%
    15:00 +10°C° 0.1 mm 5 mps 742 mmHg 61%
    16:00 +9°C° 0.1 mm 5 mps 743 mmHg 67%
    17:00 +7°C° 0.1 mm 5 mps 743 mmHg 74%
    18:00 +7°C° 0 mm 4 mps 743 mmHg 75%
    19:00 +6°C° 0 mm 4 mps 744 mmHg 75%
    20:00 +5°C° 0 mm 4 mps 745 mmHg 76%
    21:00 +5°C° 0 mm 4 mps 745 mmHg 76%
    22:00 +4°C° 0 mm 4 mps 746 mmHg 76%
    23:00 +4°C° 0 mm 3 mps 746 mmHg 76%

    31 Marzo, Martes

    Tiempo Temperatura Precipitaciones Viento Presión Humedad
    00:00 +3°C° 0 mm 4 mps 746 mmHg 77%
    01:00 +3°C° 0 mm 4 mps 747 mmHg 79%
    02:00 +1°C° 0 mm 4 mps 747 mmHg 81%
    03:00 0°C° 0 mm 4 mps 747 mmHg 80%
    04:00 0°C° 0 mm 4 mps 748 mmHg 78%
    05:00 -1°C° 0 mm 5 mps 748 mmHg 77%
    06:00 -1°C° 0 mm 5 mps 749 mmHg 75%
    07:00 -1°C° 0 mm 5 mps 749 mmHg 73%
    08:00 -1°C° 0 mm 5 mps 750 mmHg 71%
    09:00 -1°C° 0 mm 5 mps 750 mmHg 68%
    10:00 0°C° 0 mm 5 mps 751 mmHg 64%
    11:00 0°C° 0 mm 5 mps 751 mmHg 61%
    12:00 +1°C° 0 mm 5 mps 751 mmHg 57%
    13:00 +1°C° 0 mm 5 mps 751 mmHg 54%
    14:00 +2°C° 0 mm 5 mps 751 mmHg 50%
    15:00 +2°C° 0 mm 5 mps 751 mmHg 49%
    16:00 +1°C° 0 mm 5 mps 751 mmHg 48%
    17:00 +1°C° 0 mm 5 mps 751 mmHg 47%
    18:00 0°C° 0 mm 5 mps 752 mmHg 49%
    19:00 0°C° 0 mm 5 mps 753 mmHg 50%
    20:00 -1°C° 0 mm 5 mps 753 mmHg 52%
    21:00 -1°C° 0 mm 5 mps 753 mmHg 52%
    22:00 -2°C° 0 mm 4 mps 753 mmHg 53%
    23:00 -2°C° 0 mm 4 mps 753 mmHg 53%

    1 Abril, Miércoles

    Tiempo Temperatura Precipitaciones Viento Presión Humedad
    00:00 -2°C° 0 mm 4 mps 753 mmHg 54%
    01:00 -2°C° 0 mm 3 mps 753 mmHg 54%
    02:00 -2°C° 0 mm 3 mps 753 mmHg 54%
    03:00 -2°C° 0 mm 3 mps 753 mmHg 54%
    04:00 -2°C° 0 mm 3 mps 753 mmHg 54%
    05:00 -2°C° 0 mm 3 mps 753 mmHg 53%
    06:00 -2°C° 0 mm 3 mps 754 mmHg 48%
    07:00 -1°C° 0 mm 3 mps 754 mmHg 42%
    08:00 -1°C° 0 mm 4 mps 754 mmHg 36%
    09:00 +1°C° 0 mm 3 mps 753 mmHg 34%
    10:00 +1°C° 0 mm 3 mps 753 mmHg 31%
    11:00 +2°C° 0 mm 3 mps 753 mmHg 29%
    12:00 +3°C° 0 mm 3 mps 753 mmHg 28%
    13:00 +4°C° 0 mm 2 mps 753 mmHg 27%
    14:00 +4°C° 0 mm 2 mps 752 mmHg 25%
    15:00 +4°C° 0 mm 2 mps 752 mmHg 26%
    16:00 +4°C° 0 mm 2 mps 752 mmHg 26%
    17:00 +5°C° 0 mm 1 mps 751 mmHg 27%
    18:00 +4°C° 0 mm 1 mps 751 mmHg 30%
    19:00 +3°C° 0 mm 1 mps 752 mmHg 34%
    20:00 +2°C° 0 mm 1 mps 752 mmHg 37%
    21:00 +2°C° 0 mm 1 mps 752 mmHg 37%
    22:00 +2°C° 0 mm 1 mps 752 mmHg 37%
    23:00 0°C° 0 mm 0 mps 752 mmHg 37%

    2 Abril, Jueves

    Tiempo Temperatura Precipitaciones Viento Presión Humedad
    00:00 +1°C° 0 mm 1 mps 752 mmHg 37%
    01:00 +1°C° 0 mm 1 mps 751 mmHg 37%
    02:00 +1°C° 0 mm 1 mps 751 mmHg 38%
    03:00 +1°C° 0 mm 1 mps 751 mmHg 38%
    04:00 0°C° 0 mm 1 mps 751 mmHg 39%
    05:00 0°C° 0 mm 1 mps 751 mmHg 39%
    06:00 +1°C° 0 mm 1 mps 751 mmHg 36%
    07:00 +2°C° 0 mm 2 mps 751 mmHg 34%
    08:00 +3°C° 0 mm 2 mps 751 mmHg 31%
    09:00 +4°C° 0 mm 2 mps 751 mmHg 30%
    10:00 +4°C° 0 mm 2 mps 750 mmHg 29%
    11:00 +5°C° 0 mm 2 mps 750 mmHg 28%
    12:00 +6°C° 0 mm 2 mps 750 mmHg 27%
    13:00 +6°C° 0 mm 2 mps 750 mmHg 27%
    14:00 +6°C° 0 mm 2 mps 750 mmHg 27%
    15:00 +6°C° 0 mm 2 mps 749 mmHg 29%
    16:00 +6°C° 0 mm 2 mps 749 mmHg 30%
    17:00 +6°C° 0 mm 2 mps 749 mmHg 32%
    18:00 +5°C° 0 mm 2 mps 749 mmHg 35%
    19:00 +4°C° 0 mm 2 mps 749 mmHg 39%
    20:00 +4°C° 0 mm 1 mps 750 mmHg 43%
    21:00 +3°C° 0 mm 2 mps 750 mmHg 45%
    22:00 +2°C° 0 mm 2 mps 750 mmHg 46%
    23:00 +2°C° 0 mm 2 mps 750 mmHg 48%
    Mostrar más